Lapse_Rate
5.3 5.3 5.2 5.1 5.5 5.3 5.3 5.4 5.5 5.2 5.2 4.9 4.9 5.1 5.2 5.2 5.2 5.1 5.0 4.8 4.8 4.8 4.8 5.1 5.3 5.5 5.6 5.8 5.8 5.8 5.8 5.8 5.8 5.8 5.7 5.5 5.4 5.1 5.2 5.1 5.3 5.3 5.6 5.6 5.6 5.8 5.9
5.0 5.2 5.4 5.5 5.3 5.4 5.4 5.5 5.6 5.4 5.2 5.0 4.9 4.9 5.1 5.3 5.4 5.4 5.2 5.0 4.8 4.6 4.9 5.1 5.3 5.5 5.6 5.6 5.5 5.6 5.7 5.7 5.8 6.1 6.2 5.9 5.5 5.3 5.4 5.2 5.4 5.3 5.4 5.9 6.1 6.0 5.5
4.9 4.9 5.1 5.3 5.5 5.5 5.5 5.5 5.5 5.7 5.8 5.7 5.4 5.2 5.3 5.4 5.4 5.4 5.2 5.1 5.0 5.0 5.1 5.3 5.4 5.6 5.8 5.6 5.5 5.6 5.8 6.0 6.1 6.1 5.9 5.8 5.6 5.3 5.3 5.1 5.1 5.1 5.4 5.9 6.1 5.9 5.8
4.8 4.8 4.8 4.9 5.1 5.4 5.4 5.5 5.6 5.5 5.5 5.6 5.6 5.7 5.5 5.2 5.0 5.0 4.9 4.9 5.0 5.3 5.4 5.5 5.6 5.7 5.7 5.6 5.8 5.9 6.1 6.0 5.7 5.6 5.5 5.3 5.1 5.0 4.9 4.9 4.6 4.5 4.7 5.1 6.0 5.8 6.1
4.8 4.8 4.7 4.7 4.8 4.9 5.2 5.4 5.4 5.5 5.5 5.5 5.4 5.4 5.5 5.4 5.4 5.4 5.3 5.4 5.5 5.5 5.6 5.7 5.8 5.8 5.9 5.7 5.8 5.6 5.5 5.5 5.5 5.4 5.2 4.8 4.4 4.3 4.1 3.8 3.7 4.4 4.3 4.5 4.9 5.5 4.8
5.4 5.0 4.7 4.7 4.7 4.8 5.0 5.1 5.3 5.4 5.4 5.6 5.7 5.7 5.6 5.6 5.6 5.6 5.7 5.7 5.7 5.7 5.9 5.9 5.8 5.6 5.6 5.5 5.6 5.7 5.8 5.8 5.7 5.3 4.8 4.7 4.6 4.1 3.8 3.8 3.8 3.8 3.8 4.4 4.4 4.8 4.9
6.0 5.7 5.4 4.9 4.6 4.8 4.7 4.9 5.1 5.4 5.4 5.4 5.4 5.5 5.7 5.8 5.9 6.0 5.9 6.0 6.0 6.0 6.0 6.0 5.8 5.8 5.8 5.7 5.7 5.6 5.5 5.4 5.3 5.0 4.8 4.9 4.7 4.4 4.3 4.1 4.0 4.0 4.1 4.3 4.9 4.9 4.4
6.3 6.0 5.6 5.5 5.1 4.8 4.7 4.9 4.9 5.0 5.2 5.5 5.6 5.7 5.6 5.7 5.7 5.9 5.9 5.9 5.7 5.7 5.7 5.9 5.9 5.7 5.7 5.6 5.6 5.3 5.5 5.6 5.6 5.4 5.2 5.0 4.9 4.8 4.8 4.5 4.3 4.2 4.0 4.6 4.8 4.7 4.3
6.2 5.9 6.0 5.7 5.4 5.3 5.0 4.8 4.8 5.0 5.0 5.1 5.3 5.4 5.5 5.7 5.8 5.9 6.1 6.2 6.0 5.8 5.6 5.3 5.3 5.3 5.2 5.2 5.0 5.3 5.6 5.8 5.8 5.6 5.6 5.6 5.4 5.0 4.9 4.8 4.4 4.6 4.1 4.3 4.0 4.3 4.5
6.3 6.2 6.2 6.0 5.7 5.5 5.2 5.1 4.9 4.8 4.9 5.1 5.2 5.4 5.5 5.6 5.7 5.6 5.5 5.6 5.6 5.6 5.3 5.1 5.1 5.0 5.3 5.3 5.5 5.4 5.4 5.5 5.4 5.5 5.5 5.6 5.5 5.3 5.2 4.9 4.4 4.4 4.1 4.0 3.8 3.7 3.9
6.2 6.1 6.0 6.0 6.0 5.9 5.8 5.6 5.3 5.2 5.1 5.0 5.1 5.2 5.3 5.5 5.5 5.5 5.6 5.6 5.5 5.3 2.7 5.1 5.2 5.2 5.2 5.2 5.3 5.2 5.4 5.4 5.3 5.2 5.3 5.4 5.5 5.4 5.3 4.9 4.5 4.7 4.3 3.9 3.5 3.6 3.8
5.9 6.0 5.9 5.8 5.9 6.0 5.9 5.8 5.7 5.6 5.4 5.2 5.1 5.2 5.6 5.6 5.6 5.6 5.7 5.8 5.8 5.7 4.7 5.2 5.1 5.1 5.2 5.2 5.1 5.1 5.2 5.2 5.3 5.4 5.4 5.3 5.3 5.3 5.1 4.6 4.2 4.1 4.4 3.9 3.5 3.3 3.3
5.8 5.7 5.7 5.7 5.6 5.6 5.7 5.8 5.8 5.7 5.7 5.6 5.4 5.3 5.4 5.6 5.6 5.6 5.8 5.8 5.9 5.7 5.3 5.2 5.1 5.2 5.2 5.2 5.1 5.1 5.0 4.9 4.8 4.9 5.1 5.3 5.3 5.1 4.7 4.5 4.2 3.8 4.2 3.0 2.8 2.1 2.7
6.0 5.9 5.7 5.6 5.5 5.4 5.4 5.5 5.7 5.8 5.8 5.7 5.5 5.7 5.5 5.5 5.5 5.8 5.9 5.9 5.8 5.2 5.1 5.2 5.2 5.2 5.3 5.3 5.2 5.0 5.0 4.8 4.8 4.7 4.7 4.5 5.1 4.8 4.5 4.1 3.8 3.5 3.5 3.6 2.2 1.4 2.1
6.0 6.0 5.9 5.8 5.6 5.5 5.5 5.5 5.6 5.6 5.8 6.0 5.9 5.7 5.7 5.6 5.7 5.7 5.7 5.7 5.1 5.0 5.0 5.3 5.5 5.3 5.2 5.1 5.0 5.1 5.0 4.9 4.5 4.2 4.2 4.1 4.8 4.8 4.5 4.4 3.9 3.4 3.1 3.0 2.6 2.6 2.2
6.1 6.1 6.0 5.8 5.6 5.5 5.6 5.7 5.6 5.6 5.6 5.7 5.9 5.8 5.7 5.6 5.6 5.6 5.7 5.5 5.2 5.1 5.2 5.1 5.1 5.2 5.1 5.0 4.9 4.8 4.8 4.7 4.4 4.2 3.7 3.8 3.9 4.9 4.7 4.4 4.3 3.7 3.4 3.2 3.0 1.4 2.4
5.8 6.0 6.0 5.9 5.7 5.6 5.6 5.6 5.7 5.7 5.5 5.5 5.6 5.9 5.8 5.6 5.6 5.6 5.4 5.2 5.1 5.1 5.2 5.1 5.0 4.8 4.7 4.7 5.0 4.9 4.7 4.5 4.3 4.1 3.9 3.5 3.2 4.7 4.4 4.5 4.0 3.8 3.6 3.3 3.2 3.0 1.2
5.7 5.7 5.8 5.8 5.6 5.5 5.6 5.7 5.8 5.6 5.7 5.8 5.6 5.7 5.7 5.7 5.5 5.2 5.1 4.9 5.1 5.0 4.9 4.9 4.9 4.8 4.8 4.5 4.5 4.6 4.8 4.7 4.5 4.1 3.9 3.8 3.3 3.4 4.5 4.0 4.0 3.8 3.7 3.5 3.4 3.0 2.8
5.4 5.5 5.6 5.6 5.6 5.5 5.4 5.5 5.6 5.8 5.8 5.9 5.8 5.8 5.6 5.4 5.6 5.4 5.1 4.9 4.7 4.7 4.7 4.8 4.8 4.7 4.6 4.5 4.4 4.7 4.8 4.8 4.6 4.4 4.1 3.6 3.3 2.9 4.4 4.2 3.8 3.8 3.7 3.4 3.4 3.0 2.8
5.7 5.8 5.9 5.8 5.8 5.8 5.8 5.6 5.4 5.3 5.5 5.6 5.7 5.6 5.4 5.3 5.3 5.3 5.5 5.4 4.8 4.5 4.5 4.5 4.6 4.8 4.6 4.6 4.7 4.7 4.6 4.3 4.5 4.3 4.3 3.7 3.6 4.0 3.9 4.3 3.5 3.4 3.3 2.8 2.9 3.0 3.2
5.8 5.8 5.9 6.1 6.5 6.5 6.3 6.2 6.1 5.8 5.7 5.5 5.3 5.2 5.5 5.4 5.2 5.0 5.0 5.4 5.1 4.2 4.4 4.2 4.4 4.4 4.3 4.6 4.5 4.3 4.6 4.2 4.3 4.4 4.2 3.8 3.8 4.0 4.0 4.4 3.8 3.7 4.2 3.9 3.1 3.6 2.5
6.2 6.2 6.0 6.0 6.0 5.9 6.0 6.1 6.4 6.4 6.3 5.9 5.5 5.2 5.1 5.4 5.5 5.1 4.9 4.8 4.8 4.4 3.8 4.2 4.0 3.9 4.1 4.4 4.3 4.1 4.1 4.2 4.2 4.4 3.9 3.6 3.5 3.6 4.3 5.1 4.9 4.8 6.0 5.3 4.5 4.4 4.2
6.3 6.2 6.2 6.2 6.1 6.1 6.2 6.2 6.2 6.1 6.0 6.0 6.1 5.9 5.2 4.6 5.0 4.7 5.0 3.9 4.0 3.9 4.0 4.0 3.9 3.9 4.0 4.2 4.3 4.5 4.5 4.4 4.0 4.3 4.5 3.3 3.2 2.8 3.0 4.4 4.5 5.9 6.8 6.4 6.1 6.0 5.7
6.0 6.1 6.1 6.2 6.3 6.3 6.1 6.0 6.0 6.0 6.0 5.9 5.8 5.5 4.9 4.5 3.7 3.6 3.7 3.4 3.8 3.9 3.5 3.9 4.3 4.0 3.8 3.9 3.9 3.9 4.4 4.8 4.9 4.9 4.8 4.0 3.6 2.8 2.4 3.7 3.2 6.4 6.5 6.8 6.4 6.9 6.2
5.9 5.8 5.8 5.9 6.0 6.1 6.0 6.0 6.0 5.8 5.9 5.8 5.6 5.1 4.5 4.0 3.5 3.3 3.4 3.2 3.7 3.8 3.9 3.9 4.0 4.0 3.9 4.0 3.8 3.9 4.0 4.4 4.9 5.1 5.5 5.0 3.6 2.8 2.9 2.3 3.7 5.8 6.5 6.7 6.1 6.2 6.4
5.6 5.6 5.8 5.8 5.9 6.0 6.1 6.0 5.9 5.8 5.8 5.6 5.5 4.9 4.3 3.4 3.3 3.7 3.2 3.7 3.8 3.3 3.3 3.5 3.5 3.9 4.0 4.1 4.0 3.8 3.9 3.8 3.9 4.1 4.9 5.0 4.4 3.4 3.0 2.4 2.2 5.6 6.2 6.1 5.8 5.7 5.8
5.7 5.7 5.6 5.7 5.6 5.6 5.7 5.7 5.5 5.4 5.2 5.3 5.3 5.0 4.8 3.5 3.7 3.4 3.5 3.5 3.4 3.4 3.4 3.3 3.1 2.9 3.2 3.4 3.7 3.4 3.7 3.8 3.5 3.9 4.3 4.3 3.8 3.2 2.6 2.2 2.7 5.5 6.1 5.8 5.5 5.9 5.8
5.4 5.1 5.3 5.3 5.3 5.1 5.2 5.2 5.2 5.1 5.0 5.0 5.0 4.7 4.6 4.5 4.6 4.2 3.7 3.4 3.2 2.9 2.7 2.7 2.8 2.8 3.0 3.0 3.3 3.2 3.2 3.4 3.2 3.4 3.9 4.5 4.5 3.8 3.2 2.1 2.3 5.8 6.1 6.0 6.1 6.2 6.0
4.6 4.7 4.7 4.7 4.9 4.9 4.9 4.8 4.7 4.5 4.5 4.6 4.6 4.5 4.3 4.1 4.1 4.1 3.6 3.4 2.8 2.6 2.4 2.1 2.5 2.7 3.0 3.2 3.3 3.1 3.1 3.2 3.4 3.1 3.3 3.7 4.6 4.4 4.2 4.6 5.3 5.7 6.2 6.2 6.6 6.1 5.9
Wind_Speed
23 24 24 25 26 27 29 30 30 29 28 27 25 25 25 24 21 20 18 16 16 13 9 7 7 8 3 7 4 7 12 12 8 6 8 3 6 2 2 2 5 1 3 6 7 9 7
22 23 23 23 24 25 26 27 26 25 25 24 23 22 21 20 20 19 16 15 14 9 7 8 11 4 5 8 6 9 8 5 5 5 7 7 3 1 3 1 0 3 5 8 7 9 5
21 21 22 23 23 23 23 23 23 22 22 21 21 20 19 16 14 12 11 10 7 5 8 10 9 4 12 4 4 7 5 2 3 2 3 2 2 3 1 4 2 3 6 7 5 2 7
20 20 20 21 21 22 22 23 22 22 21 20 19 19 19 18 14 11 7 3 4 6 4 3 5 5 5 3 3 4 6 3 5 3 1 1 4 3 2 3 6 3 2 4 4 7 5
20 20 21 20 20 21 21 21 21 21 21 21 20 20 21 21 19 12 6 5 6 5 2 2 5 6 2 6 3 4 1 2 4 3 4 2 4 4 5 2 4 4 4 6 8 5 6
20 20 20 21 21 21 21 21 21 20 20 20 19 19 20 20 20 18 8 3 7 3 5 4 3 5 4 2 4 3 2 1 3 3 6 7 5 3 3 3 2 5 6 6 10 6 7
19 19 20 20 20 20 21 22 23 23 23 22 20 19 17 17 16 17 6 3 5 6 9 4 1 3 2 5 2 3 3 5 5 6 2 4 3 5 6 4 4 4 5 10 14 13 6
19 19 19 19 20 20 21 21 21 22 22 23 23 22 19 18 10 16 5 6 3 2 3 1 1 1 0 1 4 4 3 3 3 1 2 4 5 4 5 5 4 5 8 15 11 7 5
18 19 19 19 19 20 20 20 21 21 21 22 22 21 19 17 4 7 5 3 2 1 4 4 3 2 3 2 2 4 2 2 2 2 3 5 4 3 4 3 5 5 6 6 9 7 5
20 19 18 19 19 19 19 20 20 21 21 21 22 20 18 17 6 2 3 3 2 1 5 5 3 2 1 1 3 2 2 2 1 3 3 5 3 3 3 5 4 5 4 7 7 9 8
18 19 19 19 18 18 20 21 21 21 21 22 21 18 12 10 5 3 1 1 4 3 5 2 4 1 1 1 4 1 1 2 3 3 4 4 2 2 4 4 5 9 2 7 5 4 4
18 18 18 19 21 19 18 20 22 22 22 23 23 14 4 3 3 1 1 4 3 6 3 4 3 4 4 0 2 2 1 3 0 2 1 6 4 3 4 3 4 7 6 2 3 1 2
18 19 19 21 21 22 22 21 21 22 24 26 22 8 4 2 1 3 2 3 5 6 2 5 3 4 3 3 4 2 3 5 3 6 6 6 2 3 1 4 3 6 5 4 6 4 5
17 18 20 20 21 21 21 22 22 23 24 27 16 4 5 4 3 0 2 4 9 2 2 3 3 4 2 4 1 4 2 4 1 3 2 4 7 1 1 2 3 3 2 4 4 3 6
18 18 20 20 21 21 21 22 23 23 25 25 6 3 2 6 7 2 4 6 3 2 2 5 4 3 4 2 1 5 1 1 2 2 2 4 6 3 2 1 4 2 2 1 3 2 4
18 15 18 20 20 22 22 23 24 25 27 17 2 2 3 11 7 4 4 3 3 3 1 1 2 2 3 4 5 6 3 1 2 2 1 1 6 2 4 1 3 2 0 3 3 6 6
16 18 17 18 20 21 22 22 22 24 30 10 3 3 3 11 2 4 3 3 3 2 3 1 1 3 3 3 1 2 3 3 2 3 2 3 2 5 2 4 5 2 1 3 3 3 3
15 17 17 16 17 19 20 22 21 21 27 9 2 3 3 3 4 2 2 1 2 2 1 0 1 2 2 2 3 3 4 6 6 7 4 4 4 5 8 2 1 2 4 5 4 4 2
13 16 17 15 15 16 18 20 21 18 19 2 2 2 3 3 3 3 5 3 2 2 3 2 3 5 3 3 3 4 3 2 7 7 6 6 1 5 8 4 1 4 4 3 4 2 6
16 15 16 15 13 13 15 18 20 19 15 3 2 3 4 4 1 3 4 3 4 2 3 3 3 3 2 3 4 4 3 2 4 4 5 6 3 7 7 8 2 7 6 6 5 3 3
15 17 18 13 12 11 11 13 16 17 13 3 3 1 2 4 3 2 2 2 3 3 2 3 2 6 6 3 2 4 4 4 2 4 2 3 6 6 12 15 17 22 20 15 15 14 8
12 13 14 16 14 14 14 11 9 11 10 3 2 2 1 2 2 1 1 3 3 4 3 3 4 1 6 6 7 9 5 4 7 2 5 1 4 2 7 16 8 14 17 18 19 22 21
13 14 13 12 13 13 11 9 6 7 6 2 1 1 1 2 1 1 4 5 3 1 6 4 7 2 5 14 14 15 7 6 6 8 8 5 2 3 6 5 11 7 7 9 6 6 20
13 15 13 13 13 13 14 14 5 2 0 1 1 1 2 4 4 4 3 5 8 9 10 11 5 4 6 1 4 4 5 7 7 9 7 6 4 2 5 7 1 2 4 8 12 6 16
11 13 14 15 11 12 13 13 12 9 9 2 2 2 3 3 7 7 11 11 8 7 6 7 11 5 1 2 2 5 3 3 1 1 6 5 4 3 3 2 9 11 2 5 5 6 12
9 11 12 13 13 11 11 10 11 11 9 2 2 2 2 2 6 13 8 4 8 11 9 6 4 4 2 1 2 4 4 3 4 1 4 4 1 4 1 4 6 3 3 2 2 6 3
9 8 9 11 13 13 11 10 10 11 11 3 2 5 2 3 4 5 5 6 1 2 3 3 3 2 1 1 3 5 6 5 5 7 6 3 2 11 11 7 8 13 7 1 1 5 2
9 10 9 9 10 12 13 13 10 9 7 3 4 6 2 3 4 5 9 13 9 6 9 4 2 0 1 4 4 4 4 5 4 4 8 10 10 6 4 5 10 8 3 6 4 5 5
10 11 10 9 10 10 11 12 12 12 9 3 2 2 2 3 4 1 11 15 13 14 9 4 4 4 4 2 3 3 3 2 3 4 1 4 7 3 10 9 3 6 6 6 7 14 10
Wind_Direction
41 40 39 34 37 39 40 40 39 44 49 49 50 50 50 49 59 69 75 80 81 76 66 41 14 2 37 52 66 319 342 354 12 23 43 56 49 61 75 343 339 237 323 315 287 289 253
43 37 36 36 35 38 39 38 40 42 46 47 45 43 44 47 52 53 59 65 65 56 39 27 17 19 67 74 299 329 336 6 16 31 27 41 73 52 95 14 99 294 276 283 279 274 272
41 41 37 34 34 32 33 36 36 37 41 40 39 39 38 42 48 51 57 57 46 21 17 19 18 68 62 127 303 334 7 346 3 30 43 53 86 76 137 334 326 289 319 323 278 283 295
35 36 37 36 33 32 31 30 30 32 30 30 31 30 32 36 34 31 33 23 349 335 338 33 49 65 86 271 316 15 345 347 357 23 37 96 64 83 50 331 352 331 63 359 261 305 266
31 29 30 31 31 31 30 31 30 27 24 22 19 18 18 19 19 14 357 345 3 35 87 105 51 93 72 335 26 301 303 344 323 352 28 69 56 50 13 6 331 353 281 273 301 211 283
33 29 28 26 24 24 24 24 24 26 24 19 15 13 12 9 9 3 328 353 7 43 15 36 67 48 2 293 282 326 292 46 42 353 23 35 38 27 7 81 273 280 292 267 264 278 280
29 28 25 24 23 23 20 17 16 15 14 13 11 7 6 5 5 1 16 30 23 357 35 84 190 143 231 271 258 335 19 19 29 48 25 5 24 241 236 216 244 265 261 267 276 280 286
26 24 23 21 19 18 17 16 15 12 10 6 3 359 356 355 13 24 65 77 141 206 83 40 131 75 263 28 7 345 47 48 54 305 16 12 234 244 262 273 260 277 282 282 290 281 281
24 22 19 19 17 14 11 10 8 7 5 2 357 353 349 344 7 42 71 69 129 308 82 338 340 346 312 62 298 275 119 130 163 230 205 187 233 292 231 281 301 259 242 272 272 315 259
21 18 17 15 13 12 9 6 3 360 355 353 351 349 346 340 44 326 39 1 32 43 74 310 1 326 92 112 279 222 189 162 245 258 263 230 260 227 255 259 199 292 227 261 283 332 320
26 19 12 9 9 7 4 3 1 357 350 345 347 341 342 15 146 66 147 13 110 53 53 277 308 243 39 198 300 356 25 67 262 272 75 275 285 287 271 232 163 246 299 262 271 266 314
20 15 10 9 3 357 360 357 354 351 348 344 344 345 351 33 42 103 130 116 52 44 282 354 310 353 5 340 293 320 285 43 298 287 247 254 302 255 235 288 211 307 309 338 69 325 277
21 14 9 9 11 5 359 356 352 350 346 344 348 20 64 85 109 312 131 58 37 88 304 325 338 13 343 296 317 358 359 4 33 10 8 324 257 280 237 317 358 6 10 338 355 9 234
18 13 5 9 6 9 358 353 351 349 345 343 350 38 46 60 355 164 63 54 65 247 305 332 334 321 310 6 309 327 360 349 96 79 19 27 333 136 47 231 306 346 58 127 289 316 289
4 11 7 7 7 4 1 354 351 348 346 345 4 8 49 347 1 68 76 48 194 209 281 336 324 353 323 354 320 14 344 234 227 168 58 14 276 310 227 291 113 332 9 157 277 245 289
356 0 7 3 4 3 0 358 353 349 346 352 55 47 354 334 353 60 70 162 194 211 253 46 335 65 315 316 2 15 328 226 148 151 108 192 297 217 285 29 54 160 138 19 12 345 306
351 353 355 2 360 3 358 359 357 354 347 355 49 52 271 339 49 46 96 236 271 227 165 154 260 295 269 288 262 286 270 268 155 136 77 135 127 288 326 186 184 124 208 85 141 171 205
342 346 349 356 357 358 358 -0 1 1 354 40 20 40 306 359 48 40 69 279 310 282 34 184 163 237 246 306 281 269 236 219 164 154 161 197 162 278 247 132 77 193 205 164 126 258 197
334 338 343 346 350 356 358 360 2 7 19 12 30 276 319 52 79 354 312 299 253 226 232 189 239 205 179 248 294 219 251 239 169 163 173 178 229 327 337 36 59 233 201 146 100 60 207
355 346 340 340 337 343 352 356 360 3 14 66 30 1 335 43 41 98 14 292 304 217 256 201 228 164 166 251 223 288 274 245 204 208 178 171 193 196 223 236 164 252 202 192 158 155 208
359 1 351 344 345 337 340 350 356 358 0 66 26 328 178 323 354 4 313 296 292 294 211 213 250 227 184 268 256 235 232 283 195 230 132 173 230 215 252 271 267 266 265 236 212 219 209
347 347 346 354 349 341 338 344 354 355 352 67 30 37 350 252 271 284 184 265 232 287 222 240 226 262 195 230 218 277 224 205 240 94 172 224 271 112 275 252 252 262 253 230 230 235 247
335 338 341 342 350 358 348 326 331 348 7 17 40 342 91 267 228 258 219 224 247 32 274 242 227 246 223 239 243 254 237 232 231 178 191 182 227 357 270 354 310 280 251 177 188 207 217
355 354 351 356 355 354 3 4 297 9 74 147 236 115 156 254 211 206 249 219 260 269 259 278 233 222 243 136 289 275 245 243 219 223 178 163 166 186 279 341 262 276 192 179 205 218 209
347 351 352 353 355 356 359 355 359 4 356 182 171 185 201 246 246 261 263 269 273 277 275 255 262 245 101 224 283 320 287 292 205 48 201 168 158 276 263 248 307 286 135 142 178 287 209
340 340 345 348 352 355 0 356 351 354 358 335 228 180 195 276 231 242 273 294 286 282 265 249 20 352 346 253 191 230 239 261 251 281 29 151 21 173 146 250 245 267 354 206 224 291 192
335 339 349 344 340 348 349 342 345 351 356 346 276 191 251 261 225 202 247 269 333 315 266 296 271 208 216 154 234 225 239 202 232 202 173 145 197 223 234 261 280 262 266 187 241 246 201
323 329 335 339 338 335 334 338 323 322 341 8 264 218 222 258 263 219 240 255 254 242 273 312 298 5 340 217 233 223 229 229 272 207 183 174 169 195 185 214 279 228 108 191 226 291 313
316 316 319 325 328 329 329 329 331 328 310 344 274 313 283 262 289 322 265 249 245 249 257 207 269 257 214 212 241 272 289 288 250 250 273 253 220 214 194 207 262 239 234 261 269 285 298